CW8081 Weather Reports


time (UTC)temp
C
wind
direction
speed
KPH
gust
KPH
rain 1hr
cm
rain 24hr
cm
rain mn
cm
humidity
%
barometer
mb
20260506151105 23 0 0.0 0.0 0.00 0.00 0.00 59 1013.4
20260506150104 24 0 0.0 1.6 0.00 0.00 0.00 57 1013.6
20260506144604 25 0 0.0 0.0 0.00 0.00 0.00 55 1013.6
20260506143104 26 0 0.0 1.6 0.00 0.00 0.00 51 1013.6
20260506134604 25 0 0.0 0.0 0.00 0.00 0.00 45 1013.7
20260506133604 25 0 0.0 0.0 0.00 0.00 0.00 48 1013.7
20260506131605 25 0 0.0 1.6 0.00 0.00 0.00 54 1014.0
20260506131104 25 0 0.0 0.0 0.00 0.00 0.00 53 1014.0
20260506130604 25 0 0.0 0.0 0.00 0.00 0.00 53 1014.0
20260506130104 25 359 0.0 3.2 0.00 0.00 0.00 52 1014.0
20260506124604 25 0 0.0 0.0 0.00 0.00 0.00 52 1014.3
20260506123604 25 0 0.0 0.0 0.00 0.00 0.00 53 1014.3
20260506123104 25 0 0.0 0.0 0.00 0.00 0.00 54 1014.3
20260506121104 25 0 0.0 0.0 0.00 0.00 0.00 55 1014.4
20260506120604 25 0 0.0 0.0 0.00 0.00 0.00 53 1014.4
20260506111604 23 0 0.0 0.0 0.00 0.00 0.00 56 1014.8
20260506110104 23 350 0.0 0.0 0.00 0.00 0.00 55 1015.4
20260506104104 22 356 0.0 0.0 0.00 0.00 0.00 52 1015.4
20260506093604 22 0 0.0 0.0 0.00 0.00 0.00 49 1015.4
20260506090604 22 357 0.0 0.0 0.00 0.00 0.00 51 1015.4
20260506090104 21 0 0.0 0.0 0.00 0.00 0.00 54 1015.4
20260506084604 20 0 0.0 0.0 0.00 0.00 0.00 62 1015.4
20260506083604 20 357 0.0 0.0 0.00 0.00 0.00 62 1015.4
20260506083104 20 0 0.0 0.0 0.00 0.00 0.00 65 1015.4
20260506081104 20 0 0.0 0.0 0.00 0.00 0.00 67 1015.4
20260506080104 19 0 0.0 0.0 0.00 0.00 0.00 68 1015.4
20260506073106 20 0 0.0 0.0 0.00 0.00 0.00 65 1015.2
20260506061104 17 12 0.0 1.6 0.00 0.00 0.00 73 1015.5
20260506060104 16 18 0.0 1.6 0.00 0.00 0.00 74 1015.5
20260506050604 14 55 0.0 0.0 0.00 0.00 0.00 80 1015.5
20260506043604 13 57 0.0 0.0 0.00 0.00 0.00 81 1015.2
20260506040604 12 57 0.0 8.0 0.00 0.00 0.00 80 1014.9
20260506040104 12 57 0.0 3.2 0.00 0.00 0.00 80 1014.9
20260506034604 12 57 0.0 0.0 0.00 0.00 0.00 79 1014.7
20260506034104 12 57 0.0 0.0 0.00 0.00 0.00 79 1014.7
20260506030605 12 44 0.0 0.0 0.00 0.00 0.00 79 1014.7
20260506023104 13 44 0.0 0.0 0.00 0.00 0.00 78 1014.9
20260506021604 13 44 0.0 0.0 0.00 0.00 0.00 78 1014.9
20260506020604 13 45 0.0 0.0 0.00 0.00 0.00 77 1014.9
20260506020104 13 45 0.0 4.8 0.00 0.00 0.00 77 1014.7
20260506013604 13 44 0.0 3.2 0.00 0.00 0.00 75 1014.7
20260506011604 13 44 0.0 0.0 0.00 0.00 0.00 73 1014.6
20260506010105 14 44 0.0 0.0 0.00 0.00 0.00 72 1014.6
20260506003103 15 45 0.0 3.2 0.00 0.00 0.00 72 1014.4
20260506001604 15 44 0.0 1.6 0.00 0.00 0.00 68 1014.4
20260506001104 15 44 0.0 0.0 0.00 0.00 0.00 68 1014.4
20260506000104 15 44 0.0 0.0 0.00 0.00 0.00 67 1014.2
20260505234104 15 44 0.0 0.0 0.00 0.00 0.00 66 1014.2
20260505231604 16 49 0.0 0.0 0.00 0.00 0.00 65 1014.2
20260505230604 16 46 0.0 0.0 0.00 0.00 0.00 65 1014.2
20260505230104 16 46 0.0 1.6 0.00 0.00 0.00 65 1014.2
20260505224604 16 44 0.0 0.0 0.00 0.00 0.00 67 1014.2
20260505223604 16 44 0.0 0.0 0.00 0.00 0.00 67 1014.2
20260505221103 17 45 0.0 0.0 0.00 0.00 0.00 67 1013.9
20260505220104 17 44 0.0 0.0 0.00 0.00 0.00 67 1013.9
20260505214604 17 43 0.0 0.0 0.00 0.00 0.00 65 1013.9
20260505214104 18 45 0.0 0.0 0.00 0.00 0.00 64 1013.9
20260505213104 18 42 0.0 0.0 0.00 0.00 0.00 63 1013.9
20260505211604 18 7 0.0 0.0 0.00 0.00 0.00 57 1013.9
20260505204605 18 0 0.0 0.0 0.00 0.00 0.00 49 1013.7
20260505201104 19 0 0.0 0.0 0.00 0.00 0.00 49 1013.1
20260505200604 19 0 0.0 0.0 0.00 0.00 0.00 49 1013.1
20260505194604 19 0 0.0 0.0 0.00 0.00 0.00 50 1013.1
20260505194104 19 0 0.0 0.0 0.00 0.00 0.00 50 1013.1
20260505193604 19 0 0.0 0.0 0.00 0.00 0.00 50 1013.1
20260505191604 20 20 0.0 0.0 0.00 0.00 0.00 50 1013.1
20260505191103 20 5 0.0 0.0 0.00 0.00 0.00 51 1012.7
20260505190104 20 0 0.0 0.0 0.00 0.00 0.00 51 1012.7
20260505184604 20 0 0.0 0.0 0.00 0.00 0.00 52 1012.7
20260505184104 20 0 0.0 0.0 0.00 0.00 0.00 52 1012.7
20260505183604 20 3 0.0 0.0 0.00 0.00 0.00 52 1012.7
20260505183104 20 0 0.0 0.0 0.00 0.00 0.00 52 1012.7
20260505181104 21 0 0.0 0.0 0.00 0.00 0.00 49 1012.4
20260505180104 21 0 0.0 0.0 0.00 0.00 0.00 47 1012.4
20260505174104 22 0 0.0 0.0 0.00 0.00 0.00 46 1012.2
20260505171604 23 0 0.0 0.0 0.00 0.00 0.00 43 1012.2
20260505171104 23 0 0.0 0.0 0.00 0.00 0.00 42 1012.2
20260505170105 23 0 0.0 0.0 0.00 0.00 0.00 42 1012.3
20260505161604 25 0 0.0 0.0 0.00 0.00 0.00 41 1012.2
20260505161104 25 0 0.0 0.0 0.00 0.00 0.00 41 1012.3
20260505160104 25 0 0.0 0.0 0.00 0.00 0.00 43 1012.3